Arnos Vale, Saint Vincent

1:14 AM AST on June 26, 2017 (GMT -0400)
E T Joshua

Weather History for TVSV - December, 2013

Change the Weather History Date:

Sunday, December 1, 2013

  Actual Average Record
Temperature  
Mean Temperature 81 °F -  
Max Temperature 85 °F 83 °F 87 °F (1999)
Min Temperature 77 °F 77 °F 75 °F (2010)
Cooling Degree Days 16    
Growing Degree Days 31 (Base 50)    
Moisture  
Dew Point 73 °F    
Average Humidity 79    
Maximum Humidity 94    
Minimum Humidity 61    
Precipitation  
Precipitation 0.04 in - - ()
Sea Level Pressure  
Sea Level Pressure 29.90 in    
Wind  
Wind Speed 14 mph ()    
Max Wind Speed 100 mph    
Max Gust Speed -    
Visibility 7.0 miles    
Events Rain    
Averages and records for this station are not official NWS values.
T = Trace of Precipitation, MM = Missing Value Source: Averaged Metar Reports

Daily Weather History Graph

Daily Weather History Graph

Search for Another Location

Airport or City:

Trip Planner

Search our weather history database for the weather conditions in past years. The results will help you decide how hot, cold, wet, or windy it might be!

Date:

Astronomy

Dec. 01, 2013 Rise Set
Actual Time 6:11 AM AST 5:36 PM AST
Civil Twilight 5:48 AM AST 5:59 PM AST
Nautical Twilight 5:22 AM AST 6:25 PM AST
Astronomical Twilight 4:56 AM AST 6:51 PM AST
Moon 4:37 AM AST (12/1) 4:31 PM AST (12/1)
Length of Visible Light 12h 10m
Length of Day
11h 24m
Waning Crescent, 3% of the Moon is Illuminated
Dec 1
Waning Crescent
Dec 2
New
Dec 9
First Quarter
Dec 17
Full
Dec 25
Last Quarter

Hourly Weather History & Observations

Time (AST) Temp. Heat Index Dew Point Humidity Pressure Visibility Wind Dir Wind Speed Gust Speed Precip Events Conditions
6:00 AM 78.8 °F - 73.4 °F 83% 29.86 in 6.2 mi East 11.5 mph - N/A   Scattered Clouds
7:00 AM 80.6 °F 84.6 °F 71.6 °F 74% 29.86 in 6.2 mi East 11.5 mph - N/A   Scattered Clouds
8:00 AM 82 °F - 71 °F 61% 29.91 in 12 mi East 12.7 mph - -   Partly Cloudy
8:00 AM 82.4 °F 87.2 °F 71.6 °F 70% 29.89 in 6.2 mi East 12.7 mph - N/A   Scattered Clouds
9:00 AM 84.2 °F 90.9 °F 73.4 °F 70% 29.92 in 6.2 mi East 16.1 mph - N/A   Scattered Clouds
10:00 AM 84.2 °F 90.9 °F 73.4 °F 70% 29.92 in 6.2 mi East 16.1 mph - N/A   Mostly Cloudy
11:00 AM - - 73 °F % 29.93 in 12 mi NNE 100.1 mph - -   Mostly Cloudy
11:00 AM 84.2 °F 90.9 °F 73.4 °F 70% 29.92 in 6.2 mi East 15.0 mph - N/A   Mostly Cloudy
12:00 PM 84.2 °F 90.9 °F 73.4 °F 70% 29.89 in 6.2 mi East 16.1 mph - N/A   Mostly Cloudy
1:00 PM 84.2 °F 89.6 °F 71.6 °F 66% 29.86 in 6.2 mi East 12.7 mph - N/A   Mostly Cloudy
2:00 PM 81 °F - 74 °F 72% 29.89 in 9 mi East 8.1 mph - - Rain Light Rain Showers
2:00 PM 80.6 °F 85.4 °F 73.4 °F 79% 29.89 in 6.2 mi East 10.4 mph - N/A   Scattered Clouds
3:00 PM 78.8 °F - 73.4 °F 83% 29.89 in 6.2 mi East 9.2 mph - N/A Rain Light Rain
4:00 PM 78.8 °F - 73.4 °F 83% 29.89 in 5.0 mi East 9.2 mph - N/A Rain Rain
5:00 PM 78 °F - 75 °F 86% 29.91 in 7 mi East 8.1 mph - - Rain Light Rain
5:00 PM 77.0 °F - 75.2 °F 94% 29.89 in 6.2 mi East 8.1 mph - N/A Rain Light Rain
6:00 PM 77.0 °F - 73.4 °F 89% 29.89 in 6.2 mi East 10.4 mph - N/A Rain Light Rain
7:00 PM 77.0 °F - 73.4 °F 89% 29.89 in 6.2 mi East 9.2 mph - N/A   Mostly Cloudy
8:00 PM 77 °F - 74 °F 87% 29.93 in 9 mi East 9.2 mph - -   Partly Cloudy
8:00 PM 77.0 °F - 73.4 °F 89% 29.92 in 6.2 mi East 9.2 mph - N/A   Scattered Clouds
9:00 PM 77.0 °F - 75.2 °F 94% 29.92 in 6.2 mi East 9.2 mph - N/A   Scattered Clouds
10:00 PM 77.0 °F - 73.4 °F 89% 29.92 in - North - - N/A   Scattered Clouds